| time (UTC) | temp F | wind direction | speed MPH | gust MPH | rain 1hr in | rain 24hr in | rain mn in | humidity % | barometer mb |
| 20260509162530 | 63 | 0 | 0.0 | 4.0 | 0.00 | 0.00 | 0.00 | 90 | 1013.1 |
| 20260509162034 | 63 | 271 | 1.0 | 4.0 | 0.00 | 0.00 | 0.00 | 91 | 1013.0 |
| 20260509161545 | 63 | 0 | 1.0 | 4.0 | 0.00 | 0.00 | 0.00 | 91 | 1012.9 |
| 20260509161030 | 63 | 258 | 1.0 | 4.0 | 0.00 | 0.00 | 0.00 | 91 | 1013.0 |
| 20260509160531 | 63 | 263 | 0.0 | 4.0 | 0.00 | 0.00 | 0.00 | 91 | 1013.0 |
| 20260509160047 | 63 | 0 | 0.0 | 4.0 | 0.00 | 0.00 | 0.00 | 91 | 1013.0 |
| 20260509155530 | 63 | 0 | 1.0 | 6.0 | 0.00 | 0.00 | 0.00 | 91 | 1013.1 |
| 20260509155032 | 63 | 230 | 1.0 | 6.0 | 0.00 | 0.00 | 0.00 | 91 | 1013.0 |
| 20260509154545 | 63 | 275 | 2.0 | 4.0 | 0.00 | 0.00 | 0.00 | 91 | 1013.0 |
| 20260509154032 | 63 | 236 | 1.0 | 5.0 | 0.00 | 0.00 | 0.00 | 92 | 1013.1 |
| 20260509153529 | 63 | 234 | 1.0 | 5.0 | 0.00 | 0.00 | 0.00 | 91 | 1013.0 |
| 20260509153041 | 63 | 215 | 1.0 | 4.0 | 0.00 | 0.00 | 0.00 | 91 | 1012.9 |
| 20260509152530 | 63 | 236 | 1.0 | 4.0 | 0.00 | 0.00 | 0.00 | 91 | 1012.9 |
| 20260509152033 | 63 | 239 | 2.0 | 6.0 | 0.00 | 0.00 | 0.00 | 92 | 1013.1 |
| 20260509151539 | 62 | 242 | 1.0 | 6.0 | 0.00 | 0.00 | 0.00 | 91 | 1013.2 |
| 20260509151029 | 62 | 217 | 2.0 | 6.0 | 0.00 | 0.00 | 0.00 | 91 | 1013.3 |
| 20260509150531 | 62 | 213 | 2.0 | 4.0 | 0.00 | 0.00 | 0.00 | 91 | 1013.4 |
| 20260509150041 | 62 | 209 | 3.0 | 6.0 | 0.00 | 0.00 | 0.00 | 91 | 1013.3 |
| 20260509145531 | 62 | 196 | 2.0 | 6.0 | 0.00 | 0.00 | 0.00 | 90 | 1013.3 |
| 20260509145031 | 62 | 236 | 2.0 | 6.0 | 0.00 | 0.00 | 0.00 | 90 | 1013.2 |
| 20260509144545 | 63 | 204 | 2.0 | 6.0 | 0.00 | 0.00 | 0.00 | 90 | 1013.5 |
| 20260509144031 | 63 | 217 | 2.0 | 6.0 | 0.00 | 0.00 | 0.00 | 90 | 1013.3 |
| 20260509143530 | 63 | 215 | 3.0 | 6.0 | 0.00 | 0.00 | 0.00 | 90 | 1013.3 |
| 20260509143049 | 63 | 210 | 3.0 | 6.0 | 0.00 | 0.00 | 0.00 | 89 | 1013.3 |
| 20260509142530 | 63 | 219 | 2.0 | 5.0 | 0.00 | 0.00 | 0.00 | 89 | 1013.2 |
| 20260509142032 | 63 | 202 | 2.0 | 6.0 | 0.00 | 0.00 | 0.00 | 89 | 1013.1 |
| 20260509141548 | 63 | 225 | 2.0 | 6.0 | 0.00 | 0.00 | 0.00 | 88 | 1013.1 |
| 20260509141032 | 62 | 236 | 3.0 | 8.0 | 0.00 | 0.00 | 0.00 | 88 | 1012.8 |
| 20260509140530 | 62 | 206 | 3.0 | 8.0 | 0.00 | 0.00 | 0.00 | 88 | 1012.8 |
| 20260509140048 | 62 | 187 | 2.0 | 6.0 | 0.00 | 0.00 | 0.00 | 88 | 1012.7 |
| 20260509135529 | 62 | 245 | 2.0 | 7.0 | 0.00 | 0.00 | 0.00 | 88 | 1012.7 |
| 20260509135034 | 62 | 234 | 3.0 | 7.0 | 0.00 | 0.00 | 0.00 | 88 | 1012.6 |
| 20260509134537 | 62 | 267 | 1.0 | 6.0 | 0.00 | 0.00 | 0.00 | 88 | 1012.5 |
| 20260509134031 | 62 | 0 | 0.0 | 4.0 | 0.00 | 0.00 | 0.00 | 88 | 1012.4 |
| 20260509133532 | 62 | 0 | 2.0 | 4.0 | 0.00 | 0.00 | 0.00 | 88 | 1012.4 |
| 20260509133037 | 62 | 0 | 1.0 | 3.0 | 0.00 | 0.00 | 0.00 | 88 | 1012.4 |
| 20260509132532 | 62 | 130 | 0.0 | 3.0 | 0.00 | 0.00 | 0.00 | 88 | 1012.3 |
| 20260509132030 | 62 | 129 | 0.0 | 2.0 | 0.00 | 0.00 | 0.00 | 88 | 1012.2 |
| 20260509131543 | 62 | 0 | 0.0 | 2.0 | 0.00 | 0.00 | 0.00 | 88 | 1012.1 |
| 20260509131032 | 62 | 0 | 0.0 | 2.0 | 0.00 | 0.00 | 0.00 | 88 | 1012.1 |
| 20260509130529 | 62 | 0 | 0.0 | 2.0 | 0.00 | 0.00 | 0.00 | 88 | 1012.1 |
| 20260509130044 | 62 | 80 | 1.0 | 2.0 | 0.00 | 0.00 | 0.00 | 88 | 1012.1 |
| 20260509125529 | 62 | 0 | 0.0 | 3.0 | 0.00 | 0.00 | 0.00 | 88 | 1012.1 |
| 20260509125030 | 61 | 0 | 0.0 | 3.0 | 0.00 | 0.00 | 0.00 | 88 | 1012.2 |
| 20260509124540 | 61 | 0 | 0.0 | 3.0 | 0.00 | 0.00 | 0.00 | 88 | 1012.0 |
| 20260509124031 | 61 | 0 | 0.0 | 3.0 | 0.00 | 0.00 | 0.00 | 88 | 1011.9 |
| 20260509123531 | 61 | 0 | 1.0 | 3.0 | 0.00 | 0.00 | 0.00 | 88 | 1011.9 |
| 20260509123049 | 61 | 0 | 0.0 | 1.0 | 0.00 | 0.00 | 0.00 | 88 | 1011.8 |
| 20260509122530 | 61 | 0 | 0.0 | 1.0 | 0.00 | 0.00 | 0.00 | 88 | 1011.8 |
| 20260509122032 | 61 | 0 | 0.0 | 0.0 | 0.00 | 0.00 | 0.00 | 88 | 1011.8 |
| 20260509121544 | 61 | 0 | 0.0 | 0.0 | 0.00 | 0.00 | 0.00 | 88 | 1011.8 |
| 20260509121030 | 61 | 0 | 0.0 | 0.0 | 0.00 | 0.00 | 0.00 | 88 | 1011.8 |
| 20260509120531 | 61 | 0 | 0.0 | 0.0 | 0.00 | 0.00 | 0.00 | 89 | 1011.8 |
| 20260509120043 | 60 | 0 | 0.0 | 0.0 | 0.00 | 0.00 | 0.00 | 88 | 1011.8 |
| 20260509115533 | 60 | 0 | 0.0 | 1.0 | 0.00 | 0.00 | 0.00 | 88 | 1012.0 |
| 20260509115032 | 60 | 0 | 0.0 | 1.0 | 0.00 | 0.00 | 0.00 | 88 | 1011.9 |
| 20260509114543 | 60 | 0 | 0.0 | 1.0 | 0.00 | 0.00 | 0.00 | 88 | 1012.0 |
| 20260509114029 | 60 | 0 | 0.0 | 2.0 | 0.00 | 0.00 | 0.00 | 89 | 1012.0 |
| 20260509113529 | 60 | 0 | 0.0 | 3.0 | 0.00 | 0.00 | 0.00 | 89 | 1012.0 |
| 20260509113052 | 60 | 0 | 0.0 | 3.0 | 0.00 | 0.00 | 0.00 | 89 | 1012.1 |
| 20260509112531 | 60 | 178 | 1.0 | 3.0 | 0.00 | 0.00 | 0.00 | 89 | 1012.1 |
| 20260509112028 | 60 | 178 | 0.0 | 3.0 | 0.00 | 0.00 | 0.00 | 89 | 1012.1 |
| 20260509111547 | 60 | 178 | 1.0 | 3.0 | 0.00 | 0.00 | 0.00 | 89 | 1012.1 |
| 20260509111031 | 60 | 0 | 0.0 | 3.0 | 0.00 | 0.00 | 0.00 | 89 | 1011.9 |
| 20260509110529 | 60 | 206 | 0.0 | 3.0 | 0.00 | 0.00 | 0.00 | 89 | 1012.0 |
| 20260509110047 | 60 | 206 | 0.0 | 2.0 | 0.00 | 0.00 | 0.00 | 89 | 1012.0 |
| 20260509105532 | 59 | 0 | 0.0 | 2.0 | 0.00 | 0.00 | 0.00 | 89 | 1011.9 |
| 20260509105030 | 59 | 0 | 0.0 | 2.0 | 0.00 | 0.00 | 0.00 | 89 | 1011.8 |
| 20260509104541 | 59 | 0 | 0.0 | 0.0 | 0.00 | 0.00 | 0.00 | 89 | 1011.8 |
| 20260509104028 | 59 | 0 | 0.0 | 5.0 | 0.00 | 0.00 | 0.00 | 89 | 1011.6 |
| 20260509103528 | 59 | 0 | 1.0 | 5.0 | 0.00 | 0.00 | 0.00 | 89 | 1011.4 |
| 20260509103052 | 59 | 194 | 0.0 | 3.0 | 0.00 | 0.00 | 0.00 | 89 | 1011.7 |
| 20260509102531 | 59 | 0 | 0.0 | 2.0 | 0.00 | 0.00 | 0.00 | 88 | 1011.6 |
| 20260509102032 | 59 | 0 | 0.0 | 2.0 | 0.00 | 0.00 | 0.00 | 89 | 1011.8 |
| 20260509101540 | 59 | 0 | 0.0 | 2.0 | 0.00 | 0.00 | 0.00 | 89 | 1011.6 |
| 20260509101028 | 59 | 0 | 0.0 | 2.0 | 0.00 | 0.00 | 0.00 | 89 | 1011.8 |
| 20260509100532 | 59 | 0 | 0.0 | 2.0 | 0.00 | 0.00 | 0.00 | 89 | 1011.8 |
| 20260509100108 | 59 | 0 | 0.0 | 2.0 | 0.00 | 0.00 | 0.00 | 89 | 1011.8 |
| 20260509095531 | 59 | 0 | 0.0 | 0.0 | 0.00 | 0.00 | 0.00 | 89 | 1012.1 |
| 20260509095030 | 59 | 0 | 0.0 | 0.0 | 0.00 | 0.00 | 0.00 | 89 | 1012.1 |
| 20260509094551 | 59 | 0 | 0.0 | 0.0 | 0.00 | 0.00 | 0.00 | 88 | 1012.2 |
| 20260509094030 | 58 | 0 | 0.0 | 0.0 | 0.00 | 0.00 | 0.00 | 89 | 1012.3 |
| 20260509093532 | 58 | 0 | 0.0 | 0.0 | 0.00 | 0.00 | 0.00 | 89 | 1012.2 |
| 20260509093044 | 58 | 0 | 0.0 | 0.0 | 0.00 | 0.00 | 0.00 | 88 | 1012.3 |
| 20260509092528 | 58 | 0 | 0.0 | 0.0 | 0.00 | 0.00 | 0.00 | 88 | 1012.0 |
| 20260509092031 | 58 | 0 | 0.0 | 0.0 | 0.00 | 0.00 | 0.00 | 88 | 1012.1 |
| 20260509091544 | 58 | 0 | 0.0 | 0.0 | 0.00 | 0.00 | 0.00 | 88 | 1012.0 |
| 20260509091029 | 58 | 0 | 0.0 | 0.0 | 0.00 | 0.00 | 0.00 | 88 | 1012.1 |
| 20260509090529 | 58 | 0 | 0.0 | 0.0 | 0.00 | 0.00 | 0.00 | 88 | 1011.9 |
| 20260509090043 | 58 | 0 | 0.0 | 0.0 | 0.00 | 0.00 | 0.00 | 88 | 1011.9 |
| 20260509085528 | 58 | 0 | 0.0 | 0.0 | 0.00 | 0.00 | 0.00 | 88 | 1012.1 |
| 20260509085031 | 58 | 0 | 0.0 | 0.0 | 0.00 | 0.00 | 0.00 | 88 | 1012.1 |
| 20260509084538 | 58 | 0 | 0.0 | 0.0 | 0.00 | 0.00 | 0.00 | 88 | 1012.0 |
| 20260509084028 | 58 | 0 | 0.0 | 0.0 | 0.00 | 0.00 | 0.00 | 88 | 1012.0 |
| 20260509083531 | 58 | 0 | 0.0 | 0.0 | 0.00 | 0.00 | 0.00 | 88 | 1011.9 |
| 20260509083046 | 58 | 0 | 0.0 | 0.0 | 0.00 | 0.00 | 0.00 | 88 | 1011.9 |
| 20260509082530 | 58 | 0 | 0.0 | 0.0 | 0.00 | 0.00 | 0.00 | 88 | 1011.9 |
| 20260509082029 | 58 | 0 | 0.0 | 0.0 | 0.00 | 0.00 | 0.00 | 88 | 1011.9 |
| 20260509081546 | 58 | 0 | 0.0 | 0.0 | 0.00 | 0.00 | 0.00 | 88 | 1012.0 |
| 20260509081031 | 58 | 0 | 0.0 | 0.0 | 0.00 | 0.00 | 0.00 | 88 | 1012.0 |
| 20260509080534 | 58 | 0 | 0.0 | 0.0 | 0.00 | 0.00 | 0.00 | 88 | 1012.0 |
| 20260509080048 | 58 | 0 | 0.0 | 0.0 | 0.00 | 0.00 | 0.00 | 88 | 1012.0 |
| 20260509075528 | 58 | 0 | 0.0 | 0.0 | 0.00 | 0.00 | 0.00 | 87 | 1011.8 |
| 20260509075028 | 58 | 0 | 0.0 | 0.0 | 0.00 | 0.00 | 0.00 | 87 | 1011.8 |
| 20260509074542 | 58 | 0 | 0.0 | 0.0 | 0.00 | 0.00 | 0.00 | 87 | 1011.8 |
| 20260509074032 | 58 | 0 | 0.0 | 0.0 | 0.00 | 0.00 | 0.00 | 88 | 1011.9 |
| 20260509073528 | 58 | 0 | 0.0 | 0.0 | 0.00 | 0.00 | 0.00 | 88 | 1011.9 |
| 20260509073045 | 58 | 0 | 0.0 | 0.0 | 0.00 | 0.00 | 0.00 | 88 | 1011.8 |
| 20260509072528 | 58 | 0 | 0.0 | 0.0 | 0.00 | 0.00 | 0.00 | 88 | 1011.9 |
| 20260509072031 | 57 | 0 | 0.0 | 0.0 | 0.00 | 0.00 | 0.00 | 88 | 1011.8 |
| 20260509071545 | 57 | 0 | 0.0 | 0.0 | 0.00 | 0.00 | 0.00 | 88 | 1011.8 |
| 20260509071028 | 57 | 0 | 0.0 | 0.0 | 0.00 | 0.00 | 0.00 | 87 | 1011.8 |
| 20260509070528 | 57 | 0 | 0.0 | 0.0 | 0.00 | 0.00 | 0.00 | 87 | 1011.6 |
| 20260509070041 | 57 | 0 | 0.0 | 0.0 | 0.00 | 0.00 | 0.00 | 87 | 1011.7 |
| 20260509065532 | 57 | 0 | 0.0 | 0.0 | 0.00 | 0.00 | 0.00 | 87 | 1011.7 |
| 20260509065030 | 57 | 0 | 0.0 | 0.0 | 0.00 | 0.00 | 0.00 | 86 | 1011.8 |
| 20260509064540 | 57 | 0 | 0.0 | 0.0 | 0.00 | 0.00 | 0.00 | 86 | 1012.0 |
| 20260509064032 | 57 | 0 | 0.0 | 0.0 | 0.00 | 0.00 | 0.00 | 86 | 1012.0 |
| 20260509063530 | 57 | 0 | 0.0 | 0.0 | 0.00 | 0.00 | 0.00 | 86 | 1012.1 |
| 20260509063042 | 57 | 0 | 0.0 | 0.0 | 0.00 | 0.00 | 0.00 | 86 | 1012.2 |
| 20260509062528 | 58 | 0 | 0.0 | 0.0 | 0.00 | 0.00 | 0.00 | 86 | 1012.3 |
| 20260509062028 | 58 | 0 | 0.0 | 0.0 | 0.00 | 0.00 | 0.00 | 86 | 1012.4 |
| 20260509061547 | 58 | 0 | 0.0 | 0.0 | 0.00 | 0.00 | 0.00 | 86 | 1012.5 |
| 20260509061033 | 58 | 0 | 0.0 | 0.0 | 0.00 | 0.00 | 0.00 | 86 | 1012.8 |
| 20260509060532 | 58 | 0 | 0.0 | 0.0 | 0.00 | 0.00 | 0.00 | 86 | 1013.0 |
| 20260509060043 | 58 | 0 | 0.0 | 0.0 | 0.00 | 0.00 | 0.00 | 86 | 1013.0 |
| 20260509055535 | 58 | 0 | 0.0 | 0.0 | 0.00 | 0.00 | 0.00 | 86 | 1013.1 |
| 20260509055030 | 58 | 0 | 0.0 | 0.0 | 0.00 | 0.00 | 0.00 | 86 | 1013.1 |
| 20260509054550 | 57 | 0 | 0.0 | 0.0 | 0.00 | 0.00 | 0.00 | 86 | 1013.2 |
| 20260509054028 | 57 | 0 | 0.0 | 0.0 | 0.00 | 0.00 | 0.00 | 86 | 1013.2 |
| 20260509053531 | 57 | 0 | 0.0 | 0.0 | 0.00 | 0.00 | 0.00 | 85 | 1013.3 |
| 20260509053055 | 57 | 0 | 0.0 | 0.0 | 0.00 | 0.00 | 0.00 | 85 | 1013.2 |
| 20260509052531 | 57 | 0 | 0.0 | 0.0 | 0.00 | 0.00 | 0.00 | 85 | 1013.2 |
| 20260509052028 | 57 | 0 | 0.0 | 0.0 | 0.00 | 0.00 | 0.00 | 84 | 1013.1 |
| 20260509051545 | 57 | 0 | 0.0 | 0.0 | 0.00 | 0.00 | 0.00 | 84 | 1013.1 |
| 20260509051034 | 57 | 0 | 0.0 | 0.0 | 0.00 | 0.00 | 0.00 | 84 | 1013.1 |
| 20260509050530 | 57 | 0 | 0.0 | 0.0 | 0.00 | 0.00 | 0.00 | 84 | 1013.0 |
| 20260509050041 | 57 | 0 | 0.0 | 0.0 | 0.00 | 0.00 | 0.00 | 84 | 1013.1 |
| 20260509045532 | 58 | 0 | 0.0 | 0.0 | 0.00 | 0.00 | 0.00 | 84 | 1013.1 |
| 20260509045032 | 58 | 0 | 0.0 | 0.0 | 0.00 | 0.00 | 0.00 | 83 | 1013.1 |
| 20260509044548 | 58 | 0 | 0.0 | 0.0 | 0.00 | 0.00 | 0.00 | 83 | 1013.0 |
| 20260509044027 | 58 | 0 | 0.0 | 0.0 | 0.00 | 0.00 | 0.00 | 83 | 1013.1 |
| 20260509043527 | 58 | 0 | 0.0 | 0.0 | 0.00 | 0.00 | 0.00 | 83 | 1013.0 |
| 20260509043042 | 58 | 0 | 0.0 | 0.0 | 0.00 | 0.00 | 0.00 | 83 | 1013.2 |
| 20260509042531 | 58 | 0 | 0.0 | 0.0 | 0.00 | 0.00 | 0.00 | 82 | 1013.3 |
| 20260509042031 | 58 | 0 | 0.0 | 0.0 | 0.00 | 0.00 | 0.00 | 82 | 1013.3 |
| 20260509041540 | 58 | 0 | 0.0 | 0.0 | 0.00 | 0.00 | 0.00 | 81 | 1013.3 |
| 20260509041032 | 58 | 0 | 0.0 | 0.0 | 0.00 | 0.00 | 0.00 | 81 | 1013.3 |
| 20260509040532 | 58 | 0 | 0.0 | 0.0 | 0.00 | 0.00 | 0.00 | 81 | 1013.2 |
| 20260509040044 | 59 | 0 | 0.0 | 0.0 | 0.00 | 0.00 | 0.00 | 80 | 1013.5 |
| 20260509035530 | 59 | 0 | 0.0 | 0.0 | 0.00 | 0.00 | 0.00 | 80 | 1013.6 |
| 20260509035031 | 59 | 0 | 0.0 | 0.0 | 0.00 | 0.00 | 0.00 | 80 | 1013.6 |
| 20260509034539 | 59 | 0 | 0.0 | 0.0 | 0.00 | 0.00 | 0.00 | 79 | 1013.6 |
| 20260509034030 | 59 | 0 | 0.0 | 0.0 | 0.00 | 0.00 | 0.00 | 79 | 1013.5 |
| 20260509033531 | 59 | 0 | 0.0 | 0.0 | 0.00 | 0.00 | 0.00 | 79 | 1013.9 |
| 20260509033035 | 60 | 0 | 0.0 | 0.0 | 0.00 | 0.00 | 0.00 | 78 | 1013.7 |
| 20260509032533 | 60 | 0 | 0.0 | 0.0 | 0.00 | 0.00 | 0.00 | 78 | 1013.8 |
| 20260509032031 | 60 | 0 | 0.0 | 0.0 | 0.00 | 0.00 | 0.00 | 77 | 1013.9 |
| 20260509031543 | 60 | 0 | 0.0 | 0.0 | 0.00 | 0.00 | 0.00 | 77 | 1013.9 |
| 20260509031028 | 60 | 0 | 0.0 | 0.0 | 0.00 | 0.00 | 0.00 | 76 | 1013.9 |
| 20260509030531 | 61 | 0 | 0.0 | 0.0 | 0.00 | 0.00 | 0.00 | 76 | 1013.9 |
| 20260509030040 | 61 | 0 | 0.0 | 0.0 | 0.00 | 0.00 | 0.00 | 75 | 1014.0 |
| 20260509025527 | 62 | 0 | 0.0 | 0.0 | 0.00 | 0.00 | 0.00 | 74 | 1014.2 |
| 20260509025028 | 62 | 0 | 0.0 | 0.0 | 0.00 | 0.00 | 0.00 | 73 | 1014.0 |
| 20260509024538 | 62 | 0 | 0.0 | 1.0 | 0.00 | 0.00 | 0.00 | 73 | 1014.1 |
| 20260509024030 | 62 | 0 | 0.0 | 1.0 | 0.00 | 0.00 | 0.00 | 72 | 1014.0 |
| 20260509023530 | 62 | 199 | 0.0 | 1.0 | 0.00 | 0.00 | 0.00 | 72 | 1014.1 |
| 20260509023039 | 63 | 0 | 0.0 | 3.0 | 0.00 | 0.00 | 0.00 | 72 | 1014.4 |
| 20260509022530 | 63 | 0 | 0.0 | 3.0 | 0.00 | 0.00 | 0.00 | 71 | 1014.1 |
| 20260509022030 | 63 | 200 | 0.0 | 4.0 | 0.00 | 0.00 | 0.00 | 71 | 1014.3 |
| 20260509021544 | 63 | 0 | 0.0 | 5.0 | 0.00 | 0.00 | 0.00 | 71 | 1014.1 |
| 20260509021030 | 63 | 207 | 2.0 | 5.0 | 0.00 | 0.00 | 0.00 | 71 | 1014.3 |
| 20260509020533 | 63 | 190 | 1.0 | 4.0 | 0.00 | 0.00 | 0.00 | 70 | 1014.3 |
| 20260509020042 | 63 | 188 | 0.0 | 4.0 | 0.00 | 0.00 | 0.00 | 70 | 1014.1 |
| 20260509015533 | 63 | 0 | 1.0 | 3.0 | 0.00 | 0.00 | 0.00 | 70 | 1013.9 |
| 20260509015033 | 63 | 217 | 1.0 | 4.0 | 0.00 | 0.00 | 0.00 | 69 | 1014.1 |
| 20260509014542 | 64 | 221 | 1.0 | 5.0 | 0.00 | 0.00 | 0.00 | 69 | 1014.1 |
| 20260509014035 | 64 | 218 | 2.0 | 6.0 | 0.00 | 0.00 | 0.00 | 69 | 1013.9 |
| 20260509013530 | 64 | 202 | 2.0 | 6.0 | 0.00 | 0.00 | 0.00 | 69 | 1014.0 |
| 20260509013041 | 64 | 197 | 1.0 | 3.0 | 0.00 | 0.00 | 0.00 | 69 | 1013.9 |
| 20260509012532 | 64 | 197 | 1.0 | 3.0 | 0.00 | 0.00 | 0.00 | 69 | 1014.0 |
| 20260509012030 | 64 | 0 | 0.0 | 4.0 | 0.00 | 0.00 | 0.00 | 68 | 1013.9 |
| 20260509011538 | 64 | 0 | 1.0 | 4.0 | 0.00 | 0.00 | 0.00 | 68 | 1013.7 |
| 20260509011031 | 64 | 203 | 0.0 | 4.0 | 0.00 | 0.00 | 0.00 | 67 | 1013.7 |
| 20260509010530 | 64 | 198 | 0.0 | 2.0 | 0.00 | 0.00 | 0.00 | 67 | 1013.8 |
| 20260509010046 | 65 | 0 | 0.0 | 2.0 | 0.00 | 0.00 | 0.00 | 67 | 1013.8 |
| 20260509005531 | 65 | 0 | 0.0 | 2.0 | 0.00 | 0.00 | 0.00 | 67 | 1013.8 |
| 20260509005030 | 65 | 201 | 0.0 | 2.0 | 0.00 | 0.00 | 0.00 | 66 | 1013.7 |
| 20260509004541 | 65 | 0 | 0.0 | 2.0 | 0.00 | 0.00 | 0.00 | 66 | 1013.7 |
| 20260509004028 | 65 | 0 | 0.0 | 3.0 | 0.00 | 0.00 | 0.00 | 66 | 1013.8 |
| 20260509003532 | 65 | 201 | 0.0 | 4.0 | 0.00 | 0.00 | 0.00 | 65 | 1013.8 |
| 20260509003041 | 65 | 201 | 1.0 | 4.0 | 0.00 | 0.00 | 0.00 | 65 | 1013.8 |
| 20260509002530 | 66 | 200 | 2.0 | 4.0 | 0.00 | 0.00 | 0.00 | 64 | 1013.9 |
| 20260509002031 | 66 | 200 | 2.0 | 4.0 | 0.00 | 0.00 | 0.00 | 64 | 1013.9 |
| 20260509001540 | 66 | 207 | 1.0 | 3.0 | 0.00 | 0.00 | 0.00 | 64 | 1013.8 |
| 20260509001030 | 66 | 0 | 1.0 | 3.0 | 0.00 | 0.00 | 0.00 | 64 | 1013.8 |
| 20260509000530 | 66 | 206 | 1.0 | 3.0 | 0.00 | 0.00 | 0.00 | 64 | 1013.8 |
| 20260509000037 | 66 | 207 | 0.0 | 4.0 | 0.00 | 0.00 | 0.00 | 63 | 1013.9 |
| 20260508235531 | 66 | 207 | 1.0 | 4.0 | 0.00 | 0.02 | 0.00 | 63 | 1013.9 |
| 20260508235032 | 67 | 0 | 1.0 | 4.0 | 0.00 | 0.02 | 0.00 | 63 | 1013.9 |
| 20260508234546 | 67 | 0 | 0.0 | 4.0 | 0.00 | 0.02 | 0.00 | 62 | 1013.7 |
| 20260508234028 | 67 | 207 | 2.0 | 4.0 | 0.00 | 0.02 | 0.00 | 61 | 1013.8 |
| 20260508233534 | 67 | 208 | 1.0 | 3.0 | 0.00 | 0.02 | 0.00 | 61 | 1013.8 |
| 20260508233040 | 67 | 207 | 1.0 | 5.0 | 0.00 | 0.02 | 0.00 | 61 | 1013.7 |
| 20260508232530 | 67 | 207 | 2.0 | 5.0 | 0.00 | 0.02 | 0.00 | 61 | 1013.6 |
| 20260508232027 | 67 | 201 | 0.0 | 3.0 | 0.00 | 0.02 | 0.00 | 61 | 1013.5 |
| 20260508231555 | 67 | 219 | 0.0 | 5.0 | 0.00 | 0.02 | 0.00 | 61 | 1013.5 |
| 20260508231032 | 68 | 219 | 1.0 | 5.0 | 0.00 | 0.02 | 0.00 | 60 | 1013.5 |
| 20260508230528 | 68 | 0 | 2.0 | 5.0 | 0.00 | 0.02 | 0.00 | 60 | 1013.4 |
| 20260508230054 | 68 | 225 | 1.0 | 3.0 | 0.00 | 0.02 | 0.00 | 60 | 1013.4 |
| 20260508225535 | 68 | 136 | 1.0 | 3.0 | 0.00 | 0.05 | 0.00 | 59 | 1013.3 |
| 20260508225029 | 68 | 132 | 0.0 | 3.0 | 0.00 | 0.05 | 0.00 | 59 | 1013.3 |
| 20260508224550 | 68 | 0 | 0.0 | 5.0 | 0.00 | 0.05 | 0.00 | 59 | 1013.3 |
| 20260508224029 | 68 | 0 | 1.0 | 5.0 | 0.00 | 0.05 | 0.00 | 59 | 1013.3 |
| 20260508223528 | 68 | 165 | 1.0 | 5.0 | 0.00 | 0.05 | 0.00 | 58 | 1013.5 |
| 20260508223046 | 69 | 158 | 0.0 | 2.0 | 0.00 | 0.05 | 0.00 | 57 | 1013.6 |
| 20260508222529 | 69 | 0 | 0.0 | 2.0 | 0.00 | 0.05 | 0.00 | 56 | 1013.5 |
| 20260508222027 | 69 | 0 | 0.0 | 4.0 | 0.00 | 0.05 | 0.00 | 55 | 1013.4 |
| 20260508221548 | 69 | 0 | 0.0 | 4.0 | 0.00 | 0.05 | 0.00 | 56 | 1013.3 |
| 20260508221028 | 69 | 0 | 0.0 | 5.0 | 0.00 | 0.05 | 0.00 | 54 | 1013.6 |
| 20260508220533 | 69 | 159 | 1.0 | 5.0 | 0.00 | 0.05 | 0.00 | 55 | 1013.8 |
| 20260508220045 | 69 | 158 | 1.0 | 4.0 | 0.00 | 0.05 | 0.00 | 55 | 1013.8 |
| 20260508215534 | 69 | 0 | 0.0 | 3.0 | 0.00 | 0.09 | 0.00 | 54 | 1013.6 |
| 20260508215032 | 69 | 0 | 0.0 | 3.0 | 0.00 | 0.09 | 0.00 | 54 | 1013.6 |
| 20260508214618 | 69 | 0 | 0.0 | 3.0 | 0.00 | 0.09 | 0.00 | 55 | 1013.6 |
| 20260508214034 | 69 | 0 | 1.0 | 3.0 | 0.00 | 0.09 | 0.00 | 55 | 1013.5 |
| 20260508213530 | 69 | 125 | 0.0 | 3.0 | 0.00 | 0.09 | 0.00 | 55 | 1013.6 |
| 20260508213053 | 70 | 0 | 0.0 | 3.0 | 0.00 | 0.09 | 0.00 | 54 | 1013.7 |
| 20260508212533 | 70 | 0 | 0.0 | 3.0 | 0.00 | 0.09 | 0.00 | 53 | 1013.5 |
| 20260508212036 | 70 | 121 | 0.0 | 3.0 | 0.00 | 0.09 | 0.00 | 55 | 1013.5 |
| 20260508211543 | 70 | 0 | 1.0 | 3.0 | 0.00 | 0.09 | 0.00 | 52 | 1013.5 |
| 20260508211032 | 69 | 121 | 0.0 | 4.0 | 0.00 | 0.09 | 0.00 | 52 | 1013.6 |
| 20260508210530 | 69 | 121 | 1.0 | 4.0 | 0.00 | 0.09 | 0.00 | 51 | 1013.7 |
| 20260508210054 | 70 | 0 | 0.0 | 4.0 | 0.00 | 0.09 | 0.00 | 51 | 1013.6 |
| 20260508205529 | 69 | 0 | 0.0 | 4.0 | 0.00 | 0.15 | 0.00 | 50 | 1013.7 |
| 20260508205034 | 70 | 107 | 1.0 | 3.0 | 0.00 | 0.15 | 0.00 | 49 | 1013.6 |
| 20260508204543 | 70 | 117 | 0.0 | 3.0 | 0.00 | 0.15 | 0.00 | 50 | 1013.6 |
| 20260508204030 | 70 | 119 | 0.0 | 4.0 | 0.00 | 0.15 | 0.00 | 50 | 1013.8 |
| 20260508203532 | 70 | 118 | 1.0 | 4.0 | 0.00 | 0.15 | 0.00 | 51 | 1014.0 |
| 20260508203105 | 70 | 0 | 1.0 | 4.0 | 0.00 | 0.15 | 0.00 | 48 | 1013.8 |
| 20260508202532 | 70 | 0 | 1.0 | 6.0 | 0.00 | 0.15 | 0.00 | 48 | 1013.9 |
| 20260508202030 | 70 | 0 | 2.0 | 6.0 | 0.00 | 0.15 | 0.00 | 49 | 1014.1 |
| 20260508201546 | 70 | 128 | 1.0 | 4.0 | 0.00 | 0.15 | 0.00 | 49 | 1014.0 |
| 20260508201033 | 70 | 132 | 1.0 | 3.0 | 0.00 | 0.15 | 0.00 | 49 | 1013.8 |
| 20260508200533 | 70 | 0 | 1.0 | 3.0 | 0.00 | 0.15 | 0.00 | 48 | 1014.0 |
| 20260508200043 | 70 | 0 | 1.0 | 3.0 | 0.00 | 0.15 | 0.00 | 48 | 1013.7 |
| 20260508195535 | 70 | 131 | 0.0 | 2.0 | 0.00 | 0.23 | 0.00 | 48 | 1013.9 |
| 20260508195029 | 70 | 0 | 0.0 | 3.0 | 0.00 | 0.23 | 0.00 | 46 | 1013.9 |
| 20260508194540 | 70 | 134 | 0.0 | 6.0 | 0.00 | 0.23 | 0.00 | 47 | 1014.0 |
| 20260508194033 | 70 | 117 | 1.0 | 6.0 | 0.00 | 0.23 | 0.00 | 47 | 1014.2 |
| 20260508193535 | 70 | 77 | 3.0 | 6.0 | 0.00 | 0.23 | 0.00 | 47 | 1014.3 |
| 20260508193051 | 70 | 0 | 0.0 | 4.0 | 0.00 | 0.23 | 0.00 | 47 | 1014.7 |
| 20260508192529 | 70 | 78 | 1.0 | 6.0 | 0.00 | 0.23 | 0.00 | 47 | 1014.6 |
| 20260508192030 | 71 | 146 | 2.0 | 7.0 | 0.00 | 0.23 | 0.00 | 49 | 1014.5 |
| 20260508191548 | 70 | 104 | 3.0 | 7.0 | 0.00 | 0.23 | 0.00 | 48 | 1014.6 |
| 20260508191029 | 70 | 0 | 1.0 | 7.0 | 0.00 | 0.23 | 0.00 | 48 | 1014.5 |
| 20260508190529 | 71 | 90 | 1.0 | 7.0 | 0.00 | 0.23 | 0.00 | 48 | 1014.8 |
| 20260508190044 | 71 | 75 | 3.0 | 7.0 | 0.00 | 0.23 | 0.00 | 48 | 1014.8 |
| 20260508185533 | 71 | 94 | 2.0 | 7.0 | 0.00 | 0.33 | 0.00 | 49 | 1015.0 |
| 20260508185036 | 70 | 128 | 3.0 | 7.0 | 0.00 | 0.33 | 0.00 | 49 | 1015.1 |
| 20260508184542 | 71 | 113 | 2.0 | 8.0 | 0.00 | 0.33 | 0.00 | 48 | 1015.1 |
| 20260508184029 | 71 | 132 | 3.0 | 8.0 | 0.00 | 0.33 | 0.00 | 49 | 1015.1 |
| 20260508183529 | 71 | 182 | 2.0 | 6.0 | 0.00 | 0.33 | 0.00 | 49 | 1015.1 |
| 20260508183041 | 71 | 179 | 2.0 | 5.0 | 0.00 | 0.33 | 0.00 | 50 | 1015.4 |
| 20260508182529 | 70 | 0 | 2.0 | 5.0 | 0.00 | 0.33 | 0.00 | 49 | 1015.5 |
| 20260508182028 | 70 | 208 | 2.0 | 5.0 | 0.00 | 0.33 | 0.00 | 51 | 1015.3 |
| 20260508181543 | 70 | 188 | 0.0 | 6.0 | 0.00 | 0.33 | 0.00 | 51 | 1015.5 |
| 20260508181028 | 70 | 0 | 2.0 | 10.0 | 0.00 | 0.33 | 0.00 | 49 | 1015.5 |
| 20260508180528 | 70 | 143 | 3.0 | 10.0 | 0.00 | 0.33 | 0.00 | 51 | 1015.3 |
| 20260508180042 | 71 | 177 | 4.0 | 9.0 | 0.00 | 0.33 | 0.00 | 50 | 1015.4 |
| 20260508175528 | 72 | 157 | 2.0 | 6.0 | 0.00 | 0.44 | 0.00 | 50 | 1015.8 |
| 20260508175030 | 72 | 299 | 2.0 | 8.0 | 0.00 | 0.44 | 0.00 | 49 | 1015.6 |
| 20260508174542 | 72 | 191 | 3.0 | 8.0 | 0.00 | 0.44 | 0.00 | 51 | 1015.7 |
| 20260508174029 | 72 | 183 | 4.0 | 8.0 | 0.00 | 0.44 | 0.00 | 52 | 1015.7 |
| 20260508173529 | 72 | 195 | 3.0 | 7.0 | 0.00 | 0.44 | 0.00 | 54 | 1015.7 |
| 20260508173041 | 71 | 225 | 2.0 | 7.0 | 0.00 | 0.44 | 0.00 | 53 | 1015.8 |
| 20260508172529 | 71 | 267 | 2.0 | 10.0 | 0.00 | 0.44 | 0.00 | 54 | 1015.8 |
| 20260508172030 | 70 | 192 | 3.0 | 11.0 | 0.00 | 0.44 | 0.00 | 52 | 1016.0 |
| 20260508171542 | 70 | 186 | 4.0 | 11.0 | 0.00 | 0.44 | 0.00 | 54 | 1016.1 |
| 20260508171031 | 69 | 0 | 3.0 | 8.0 | 0.00 | 0.44 | 0.00 | 54 | 1016.0 |
| 20260508170528 | 69 | 52 | 3.0 | 11.0 | 0.00 | 0.44 | 0.00 | 54 | 1016.2 |
| 20260508170042 | 69 | 180 | 2.0 | 11.0 | 0.00 | 0.44 | 0.00 | 54 | 1016.1 |
| 20260508165530 | 70 | 161 | 5.0 | 10.0 | 0.00 | 0.56 | 0.00 | 57 | 1016.4 |
| 20260508165030 | 70 | 100 | 1.0 | 8.0 | 0.00 | 0.56 | 0.00 | 58 | 1016.4 |
| 20260508164543 | 69 | 136 | 3.0 | 8.0 | 0.00 | 0.56 | 0.00 | 57 | 1016.6 |
| 20260508164030 | 69 | 215 | 3.0 | 7.0 | 0.00 | 0.56 | 0.00 | 58 | 1016.7 |
| 20260508163530 | 69 | 228 | 3.0 | 9.0 | 0.00 | 0.56 | 0.00 | 58 | 1016.7 |
| 20260508163045 | 68 | 0 | 3.0 | 9.0 | 0.00 | 0.56 | 0.00 | 56 | 1016.8 |